Find Starlink 2421

NORAD ID: 48098 Int'l Des: 2021-027 Owner: SPXS Country: US Constellation: starlink operational
LEOCIRCULAR

当前视图

正在加载3D地球...

About Starlink 2421

Starlink 2421 (NORAD 48098) is a starlink constellation satellite (v1.0) launched Apr 7, 2021 by SPXS of US. It operates in LEO, CIRCULAR orbit with a mass of 260.00 kg.

即将过境

Passes for default location (London). Set your location on the main map for personalized predictions.

高度历史

Loading altitude history...

两行轨道根数

1 48098U 21027G 26263.90544715 .00030286 00000-0 66629-3 0 9996
2 48098 53.1607 323.8006 0003234 24.6362 335.4799 15.43744279302607
Epoch: Sep 20, 2026 • Age: 9 hours

当前状态

高度 452.6 km
远地点 / 近地点 N/A
速度 7.64 km/s
星下点 -46.53°S, 95.39°E
发射日期 Apr 7, 2021
运行时间 5.4 years
类型 internet

技术详情

分类 Payload
质量 260.00 kg
干质量 248.00 kg
长度 0.20 m
跨度 9.00 m
形状 ? Box + pan
制造商 SPXS
平台类型 Starlink
阶段状态 In Orbit
所有者/国家 SPXS/US

Most Searched